Location: Wells
(51.2093°N, 2.6446°W)
Time: 23:22:04
(UTC+00:00)

STARS - Visible Passes

Search period start: 14 March 2026 00:00
Search period end: 24 March 2026 00:00
Orbit: 575 x 589 km, 98.1° (Epoch: 14 March)

Date Brightness Start Highest point End Pass type
(mag) Time Alt. Az. Time Alt. Az. Time Alt. Az.
14 Mar ? 02:09:30 10° NNE 02:10:09 14° NNE 02:10:09 14° NNE visible
14 Mar ? 03:45:41 10° NNW 03:46:32 13° NNW 03:46:32 13° NNW visible
15 Mar ? 02:15:07 10° NNE 02:15:59 16° NNE 02:15:59 16° NNE visible
15 Mar ? 03:51:30 10° NNW 03:52:22 13° NNW 03:52:22 13° NNW visible
16 Mar ? 02:20:44 10° NNE 02:21:47 18° NNE 02:21:47 18° NNE visible
16 Mar ? 03:57:19 10° NNW 03:58:10 13° NNW 03:58:10 13° NNW visible
17 Mar ? 02:26:21 10° NNE 02:27:36 19° NNE 02:27:36 19° NNE visible
17 Mar ? 04:03:10 10° NNW 04:03:59 12° NW 04:03:59 12° NW visible
18 Mar ? 02:31:58 10° NNE 02:33:23 21° NNE 02:33:23 21° NNE visible
18 Mar ? 04:09:05 10° NNW 04:09:46 11° NW 04:09:46 11° NW visible
19 Mar ? 02:37:35 10° N 02:39:10 23° N 02:39:10 23° N visible
19 Mar ? 04:15:05 10° NW 04:15:33 11° NW 04:15:33 11° NW visible
20 Mar ? 02:43:11 10° N 02:44:57 24° N 02:44:57 24° N visible
21 Mar ? 02:48:48 10° N 02:50:43 26° N 02:50:43 26° N visible
22 Mar ? 01:19:47 10° NE 01:20:05 11° NE 01:20:05 11° NE visible
22 Mar ? 02:54:24 10° N 02:56:28 27° N 02:56:28 27° N visible
23 Mar ? 01:25:11 10° NE 01:25:50 13° NE 01:25:50 13° NE visible
23 Mar ? 03:00:00 10° N 03:02:13 28° NNW 03:02:13 28° NNW visible
